Regional Weather Roundup
Issued by NWS

Home | Current Version | Previous Version | Text Only | Print | Product List | Glossary Off
Versions: 1 2 3 4 5 6 7 8 9 10 11 12 13 14 15 16 17 18 19 20 21 22 23 24 25 26 27 28 29 30 31 32 33 34 35 36 37 38 39 40 41 42 43 44 45 46 47 48 49 50

000
ASUS43 KMPX 191610
RWRMN
WEATHER ROUNDUP FOR MINNESOTA
NATIONAL WEATHER SERVICE TWIN CITIES/CHANHASSEN MN
1100 AM CDT THU OCT 19 2017


NOTE: "FAIR" INDICATES FEW OR NO CLOUDS BELOW 12,000 FEET WITH NO
SIGNIFICANT WEATHER AND/OR OBSTRUCTIONS TO VISIBILITY. N/A MEANS
CURRENT SKY AND/OR WEATHER CONDITIONS ARE NOT AVAILABLE.

MNZ060>063-068>070-191700-
   Twin Cities Metro

CITY           SKY/WX    TMP DP  RH WIND       PRES   REMARKS
TWIN CITIES    CLOUDY    56  37  49 S3        30.08S
ST PAUL        CLOUDY    54  39  57 SE5       30.09S
CRYSTAL        CLOUDY    56  31  38 S10       30.06S
BLAINE         PTSUNNY   59  34  38 S8        30.06S
LAKEVILLE      CLOUDY    57  34  41 S8        30.08S
EDEN PRAIRIE   CLOUDY    55  36  48 S7        30.07R
SOUTH ST PAUL  CLOUDY    57  37  46 SE3       30.08F
LAKE ELMO      FAIR      57  36  44 N6        30.09S
$$
MNZ001>005-007-008-013>017-022>024-027-028-191700-
   Northwest Minnesota

CITY           SKY/WX    TMP DP  RH WIND       PRES   REMARKS
BEMIDJI        SUNNY     56  29  36 SE8       29.94S
HALLOCK        SUNNY     54  25  32 S16       29.82F
ROSEAU         SUNNY     52  30  43 S10       29.86F
WARROAD        CLOUDY    52  28  40 S7        29.88F
THIEF RVR FALL SUNNY     55  28  35 S12       29.88F
CROOKSTON      SUNNY     57  30  35 S14       29.86F
FOSSTON        SUNNY     57  28  33 S12       29.89F
DETROIT LAKES  SUNNY     59  32  36 S13       29.92F
MOORHEAD       SUNNY     57  30  35 S16       29.89R
PARK RAPIDS    SUNNY     56  33  42 S9        29.95F
MAHNOMEN       FAIR      60  32  34 S18G25    29.89F
$$
MNZ006-009>011-018-025>026-191700-
   North Central Minnesota

CITY           SKY/WX    TMP DP  RH WIND       PRES   REMARKS
BAUDETTE       CLOUDY    51  26  37 S8        29.91R
FLAG ISLAND    CLOUDY    46  30  53 S6        29.87S
INTL FALLS     CLOUDY    52  23  32 SW9       29.93R
WASKISH        CLOUDY    55  28  35 SE5       29.93S
BIG FORK       MOSUNNY   57  28  33 SW5       29.96S
LONGVILLE      CLOUDY    55  30  38 CALM      29.97F
GRAND RAPIDS   SUNNY     54  30  40 S7        30.00S
CRANE LAKE     CLOUDY    50  21  32 CALM      29.96R
ORR            CLOUDY    52  19  28 SW5       29.94R
COOK           CLOUDY    54  25  32 W5        29.97S
WALKER         FAIR      55  28  36 S8        29.96F
$$
MNZ012-019>021-037-191700-
   Northeast Minnesota

CITY           SKY/WX    TMP DP  RH WIND       PRES   REMARKS
DULUTH         SUNNY     57  29  34 W9        30.00S
ELY            CLOUDY    50  18  27 W12G20    29.96R
HIBBING        SUNNY     53  26  35 VRB6      29.99R
EVELETH        SUNNY     53  15  22 W6        30.00R
DULUTH HARBOR  SUNNY     55  36  47 SW9       30.02S
TWO HARBORS    SUNNY     59  32  36 SW10      29.99R
SILVER BAY     SUNNY     57  23  26 W6        29.97R
GRAND MARAIS     N/A     47  37  68 W12       29.95R
G MARAIS ARPRT PTSUNNY   50  16  25 W10G18    29.94R
$$
MNZ029>031-032-039>041-046>048-054>057-064-191700-
   West Central Minnesota

CITY           SKY/WX    TMP DP  RH WIND       PRES   REMARKS
FERGUS FALLS   SUNNY     61  36  39 S16G22    29.93F
WHEATON        SUNNY     61  34  36 S12       29.92F
MORRIS         SUNNY     57  36  44 S18       29.94F
ALEXANDRIA     SUNNY     61  32  33 S17G24    29.98F
ELBOW LAKE     FAIR      59  36  41 S16       29.94F
WADENA         SUNNY     59  34  38 S15G21    29.95F
GLENWOOD       SUNNY     61  34  36 S15       29.99S
APPLETON       SUNNY     61  32  33 S13G18    29.96S
BENSON         SUNNY     59  36  41 SW13      29.99F
ORTONVILLE     SUNNY     61  37  41 N9        29.93F
MADISON        SUNNY     66  36  32 S12G17    29.96S
WILLMAR        FAIR      61  32  33 S10G17    30.02S
$$
MNZ033>034-036-042>043-049>051-058-059-191700-
   Central Minnesota

CITY           SKY/WX    TMP DP  RH WIND       PRES   REMARKS
ST CLOUD       SUNNY     55  34  45 S9        30.03F
SAUK CENTRE    FAIR      57  35  42 S9        30.00S
PAYNESVILLE    SUNNY     59  30  33 S12G18    30.02S
AITKIN         SUNNY     57  30  35 S5        30.00R
PINE RIVER     CLOUDY    52  34  50 S5        30.01F
BRAINERD       SUNNY     56  31  38 S9        30.01S
STAPLES        SUNNY     57  28  33 S9G17     29.98S
LONG PRAIRIE   FAIR      55  32  41 SE13      30.00F
LITTLE FALLS   SUNNY     54  27  35 S7        30.01F
LITCHFIELD     SUNNY     61  32  33 SE7       30.03F
BUFFALO        CLOUDY    56  32  39 SE6       30.06F
MAPLE LAKE     CLOUDY    58  36  43 SE6       30.05F
HUTCHINSON     SUNNY     59  35  41 S7        30.04F
$$
MNZ037-044-045-052-053-191700-
   East Central Minnesota

CITY           SKY/WX    TMP DP  RH WIND       PRES   REMARKS
PRINCETON      CLOUDY    57  36  44 S7        30.04F
MORA           SUNNY     54  34  47 SW6       30.05F
CAMBRIDGE      CLOUDY    61  39  44 S6        30.05F
RUSH CITY      MOSUNNY   55  35  46 SE5       30.06S
MOOSE LAKE     SUNNY     54  32  43 CALM      30.02R
HINCKLEY       FAIR      54  36  50 S5        30.05F
CLOQUET        SUNNY     55  27  33 SW7       30.02R
MCGREGOR       SUNNY     57  34  41 SW7       30.02S
$$
MNZ071>073-080-081-089-090-097-098-191700-
   Southwest Minnesota

CITY           SKY/WX    TMP DP  RH WIND       PRES   REMARKS
MONTEVIDEO     SUNNY     63  34  34 SW14G22   29.99S
GRANITE FALLS  SUNNY     62  36  38 S18       30.01F HAZE
CANBY          SUNNY     66  34  31 SW17G28   29.98S
MARSHALL       SUNNY     63  34  33 S18G24    30.00F
REDWOOD FALLS  SUNNY     62  33  33 S17       30.03S
OLIVIA         SUNNY     59  36  41 S10       30.01F
PIPESTONE      SUNNY     61  32  33 S16       30.03S
WORTHINGTON    SUNNY     60  30  32 S17G25    30.07S
JACKSON        SUNNY     59  28  31 S13G21    30.09S
TRACY          SUNNY     61  34  36 S14G26    30.02F
SLAYTON        CLOUDY    60  31  33 S16G23    30.05S
$$
MNZ065>067-074>077-082>085-091>093-191700-
   South Central Minnesota

CITY           SKY/WX    TMP DP  RH WIND       PRES   REMARKS
MANKATO        CLOUDY    57  36  45 S10       30.09S
NEW ULM          N/A     59  30  33 S16       30.06S
ST JAMES       SUNNY     61  28  29 SE15      30.09R
FAIRMONT       SUNNY     58  33  39 S14       30.09F
GLENCOE        CLOUDY    58  33  39 S7        30.05F
FARIBAULT      CLOUDY    61  36  39 SE7       30.09S
OWATONNA       CLOUDY    63  36  36 S8        30.10R
WASECA         CLOUDY    59  32  36 SE7       30.11R
$$
MNZ078>079-086>088-094>096-191700-
   Southeast Minnesota

CITY           SKY/WX    TMP DP  RH WIND       PRES   REMARKS
ROCHESTER      MOSUNNY   61  36  39 S10       30.13S
RED WING       CLOUDY    55  32  41 SE5       30.09S
STANTON        CLOUDY    60  34  38 S7        30.08S
DODGE CENTER   CLOUDY    63  28  27 S10       30.10F
WINONA         CLOUDY    54  39  58 CALM      30.13S
AUSTIN         CLOUDY    57  34  41 S6        30.12S
PRESTON        MOSUNNY   59  36  41 S7        30.14S
$$
ABBREVIATIONS USED IN REMARKS
   TC - TEMPERATURES IN CELSIUS
  WCI - WIND CHILL INDEX
   HX - HEAT INDEX
  VSB - VISIBILITY
$$



USA.gov is the U.S. government's official web portal to all federal, state and local government web resources and services.